User: anonymous   Login
Location: Mason Neck State Park
(38.6428°N, 77.1981°W)
Time: 01:47:32
(UTC-05:00)
Language:

Cosmos 1400 Rocket - Orbit

View from above orbital plane
View from above orbital plane
View from above satellite
View from above satellite

Ground track
Ground track

The orbit data is extracted from the following two-line orbital elements,

1 13403U 82079B   14330.85842616  .00003795  00000-0  26734-3 0  7265
2 13403 081.1707 257.0899 0037497 109.2894 251.2390 15.04219233756268
Epoch (UTC): 26 November 2014 20:36:08
Eccentricity: 0.0037497
inclination: 81.1707°
perigee height: 528 km
apogee height: 580 km
right ascension of ascending node: 257.0899°
argument of perigee: 109.2894°
revolutions per day: 15.04219233
mean anomaly at epoch: 251.2390°
orbit number at epoch: 75626

The dashed part of the orbit path shows where the satellite is in the earth's shadow,  

DLR